Weather observations for the past three days for
Yakutat
Imperial (Metric)
Date Time (akdt) Wind (mph) Vis. (mi.) Weather Sky Cond. Temperature (ºF) Relative Humidity Wind Chill (°F) Heat Index (°F) Pressure Precipitation (in)
Air Dwpt 6 hour altimeter (in) sea level (mb) 1 hr 3 hr 6 hr
Max. Min.
12 19:53 E 6 10.00 Overcast FEW008 BKN026 OVC060 55 52 90% 30.14 1020.7
12 18:53 SE 8 10.00 Overcast BKN011 OVC055 55 52 90% 30.15 1021.1
12 17:53 SE 8 5.00 Fog/Mist SCT010 BKN022 OVC027 55 52 90% 30.16 1021.3
12 16:53 SE 5 6.00 Fog/Mist SCT009 SCT016 OVC021 54 52 93% 30.16 1021.3
12 15:53 SE 6 3.00 Light Rain Fog/Mist FEW007 BKN022 OVC030 55 53.1 55.9 53.1 93% 30.16 1021.2 0.04 0.11
12 14:53 E 7 9.00 Overcast SCT009 BKN018 OVC040 55 52 90% 30.16 1021.2
12 13:53 E 7 10.00 Overcast FEW009 SCT018 OVC039 55 53.1 93% 30.16 1021.2
12 12:53 E 8 8.00 Overcast BKN010 BKN038 OVC049 55 52 90% 30.15 1021.1 0.07
12 11:53 E 7 6.00 Fog/Mist SCT007 OVC018 55 53.1 93% 30.15 1020.9 0.01
12 10:53 SE 6 2.00 Light Rain Fog/Mist BKN005 OVC016 54 52 93% 30.14 1020.6 0.06
12 09:53 SE 3 4.00 Light Rain Fog/Mist BKN005 OVC011 54 53.1 54 53.1 97% 30.13 1020.2 0.05 0.3
12 08:53 E 3 1.25 Light Rain Fog/Mist OVC007 53.1 53.1 100% 30.12 1020.0 0.06
12 07:53 E 6 1.25 Light Rain Fog/Mist BKN005 OVC008 53.1 53.1 100% 30.11 1019.7 0.09
12 06:53 E 8 1.25 Light Rain Fog/Mist OVC007 53.1 52 96% 30.11 1019.5 0.03 0.1
12 05:53 E 9 1.25 Light Rain Fog/Mist SCT008 OVC012 53.1 52 96% 30.1 1019.3 0.03
12 04:53 E 12 5.00 Fog/Mist OVC013 53.1 52 96% 30.11 1019.5 0.04
12 03:53 E 10 2.50 Light Rain Fog/Mist FEW008 OVC014 53.1 52 53.1 53.1 96% 30.11 1019.7 0.07 0.62
12 02:53 E 10 3.00 Light Rain Fog/Mist OVC012 53.1 52 96% 30.12 1019.9 0.05
12 00:53 E 9 4.00 Light Rain Fog/Mist OVC017 53.1 52 96% 30.12 1020.1 0.15 0.43
11 23:53 E 10 1.75 Rain Fog/Mist BKN008 OVC015 53.1 52 96% 30.13 1020.3 0.13
11 22:53 NE 12 2.50 Light Rain Fog/Mist FEW007 OVC014 53.1 52 96% 30.14 1020.6 0.15
11 21:53 E 12 2.00 Rain Fog/Mist BKN007 OVC013 53.1 52 57 53.1 96% 30.14 1020.6 0.09 0.36
11 20:53 E 12 2.50 Light Rain Fog/Mist BKN010 OVC017 54 52 93% 30.14 1020.5 0.09
11 19:53 E 12 1.75 Rain Fog/Mist OVC012 54 52 93% 30.14 1020.8 0.07
11 18:53 E 10 5.00 Light Rain Fog/Mist OVC013 55 52 90% 30.15 1020.9 0.06 0.11
11 17:53 E 9 8.00 Light Rain BKN014 BKN027 OVC060 55.9 53.1 90% 30.16 1021.2 0.02
11 16:53 E 12 G 20 6.00 Light Rain Fog/Mist SCT013 BKN060 OVC070 55.9 53.1 90% 30.17 1021.5 0.03
11 15:53 E 12 G 20 4.00 Light Rain Fog/Mist SCT015 OVC041 57 53.1 59 55.9 87% 30.17 1021.5 0.01
11 14:53 SE 14 G 22 10.00 Overcast SCT018 BKN041 OVC070 59 54 83% 30.16 1021.3
11 13:53 E 15 G 23 10.00 Overcast SCT016 BKN033 OVC070 57.9 54 87% 30.15 1021.1
11 12:53 SE 12 G 20 10.00 Overcast SCT011 BKN017 OVC070 57.9 54 87% 30.15 1020.9 0.01 0.01
11 11:53 E 7 10.00 Overcast SCT014 SCT035 OVC055 57 53.1 87% 30.15 1020.9
11 10:53 E 9 10.00 Overcast BKN011 OVC018 55.9 54 93% 30.14 1020.6
11 09:53 E 7 1.75 Light Rain Fog/Mist SCT007 BKN013 OVC022 55 53.1 55.9 52 93% 30.13 1020.4 0.04 0.07
11 08:53 E 9 G 21 10.00 Overcast OVC009 55.9 53.1 90% 30.12 1020.1
11 07:53 E 10 10.00 Overcast OVC008 55 53.1 93% 30.11 1019.6
11 06:53 E 9 10.00 Overcast BKN008 BKN017 OVC060 54 52 93% 30.1 1019.3 0.03 0.03
11 05:53 E 6 3.00 Light Rain Fog/Mist OVC007 53.1 52 96% 30.1 1019.3
11 04:53 E 7 10.00 Overcast BKN010 BKN016 OVC040 53.1 51.1 93% 30.09 1019.1
11 03:53 E 6 10.00 Mostly Cloudy BKN007 BKN029 BKN035 52 51.1 55 52 97% 30.08 1018.5
11 01:53 E 5 8.00 Overcast SCT006 OVC014 53.1 52 96% 30.06 1017.9
11 00:53 E 5 4.00 Light Rain Fog/Mist FEW007 BKN026 OVC040 53.1 51.1 93% 30.05 1017.4
10 23:53 NE 6 10.00 Partly Cloudy SCT017 53.1 52 96% 30.03 1016.9
10 22:53 E 5 10.00 Overcast SCT008 BKN017 OVC041 54 53.1 97% 30.02 1016.4
10 21:53 E 3 10.00 Overcast SCT019 BKN027 OVC065 55 53.1 57 55 93% 30 1015.8 0.01
10 20:53 E 5 10.00 Overcast BKN010 BKN039 OVC100 55.9 54 93% 29.98 1015.1
10 19:53 SE 6 8.00 Overcast BKN009 BKN016 OVC047 55.9 54 93% 29.97 1014.7
10 18:53 SE 8 3.00 Fog/Mist BKN009 BKN013 OVC042 55.9 54 93% 29.95 1014.2 0.01
10 17:53 E 8 10.00 Overcast SCT012 BKN028 OVC090 57 53.1 87% 29.94 1013.8 0.01
10 16:53 E 10 3.00 Light Rain Fog/Mist BKN009 BKN015 OVC031 55.9 53.1 90% 29.93 1013.6
10 15:53 SE 8 G 17 4.00 Fog/Mist SCT008 BKN015 OVC022 55.9 54 60.1 55.9 93% 29.92 1013.1 0.02
10 14:53 SE 7 10.00 Overcast BKN017 BKN024 OVC030 59 52 78% 29.9 1012.6
10 13:53 Vrbl 6 10.00 Overcast FEW010 SCT037 OVC055 57 54 90% 29.89 1012.2
10 12:53 E 7 10.00 Overcast BKN011 BKN029 OVC045 57 54 90% 29.88 1011.6 0.02
10 11:53 SE 6 10.00 Overcast BKN008 BKN021 OVC026 55.9 54 93% 29.86 1011.3
10 10:53 SE 8 3.00 Fog/Mist OVC007 55.9 54 93% 29.85 1010.8 0.02
10 09:53 E 7 6.00 Light Rain Fog/Mist BKN008 BKN014 OVC025 55.9 54 55.9 55 93% 29.83 1010.2 0.02 0.23
10 08:53 SE 6 10.00 Light Rain OVC007 55.9 54 93% 29.81 1009.6 0.03
10 07:53 SE 7 3.00 Light Rain Fog/Mist OVC006 55.9 54 93% 29.8 1009.2 0.05
10 06:53 E 6 8.00 Light Rain BKN006 OVC017 55 54 96% 29.8 1009.0 0.05 0.13
10 05:53 E 6 8.00 Light Rain BKN006 OVC065 55 54 96% 29.79 1008.7 0.05
10 04:53 E 3 7.00 Light Rain BKN065 OVC080 55 54 96% 29.79 1008.8 0.03
10 03:53 E 5 10.00 Overcast BKN020 BKN041 OVC080 55 52 57 55 90% 29.79 1008.8
10 02:53 Calm 10.00 Overcast BKN028 OVC036 55 52 90% 29.8 1009.2
10 01:53 E 3 10.00 Overcast OVC035 55 52 90% 29.81 1009.6
10 00:53 Calm 10.00 Overcast OVC039 55.9 53.1 90% 29.83 1010.2
09 23:53 E 3 10.00 Overcast OVC037 55.9 53.1 90% 29.85 1010.8
09 22:53 Calm 10.00 Overcast BKN036 OVC050 57 54 90% 29.86 1011.2
09 21:53 Calm 10.00 Overcast BKN028 OVC043 57 55 59 57 93% 29.87 1011.6 0.01
09 20:53 E 12 10.00 Overcast SCT012 BKN022 OVC038 57.9 54 87% 29.89 1012.1
Date Time (akdt) Wind (mph) Vis. (mi.) Weather Sky Cond. Air Dwpt Max. Min. Relative Humidity Wind Chill (°F) Heat Index (°F) altimeter (in) sea level (mb) 1 hr 3 hr 6 hr
6 hour
Temperature (ºF) Pressure Precipitation (in)